OPTUS D3

Last updated on Thu Mar 05 2026 00:02:55 GMT+0000 (Coordinated Universal Time)

1 35756U 09044B 26063.51086571 -.00000158 00000+0 00000+0 0 9996 2 35756 0.8824 269.6032 0003007 67.9537 164.7054 1.00272076 60519
UTC large
Height (km)
Speed (km/s)
/
Latitude / Longitude
Inclination (degrees)
Orbital Period (minutes)
Azimuth
Elevation
Range (km)
Doppler Factor

Next 0 passes for location: London (51.5072 / 0.1276)

Sorry there are no passes over London.